Location: Navajo
(48.7922°N, 105.0603°W)
Time: 04:57:43
(UTC+00:00)

KKS-1 - Pass Details

Date: 06 July 2022
Orbit: 634 x 649 km, 98.2° (Epoch: 18 August)

Event Time Altitude Azimuth Distance (km) Brightness Sun altitude
Rises 05:50:14 0° 8° (N) 2,978 ? -16.6°
Reaches altitude 10° 05:52:33 10° 1° (N) 2,061 ? -16.7°
Maximum altitude 05:56:45 41° 292° (WNW) 949 ? -16.9°
Enters shadow 06:00:41 11° 224° (SW) 1,953 ? -17.1°
